Tracking 20083 objects as of 12-Dec-2019
HD Live streaming from Space Station
objects crossing your sky now

JIADING 1

Track JIADING 1 now!
10-day predictions


NORAD ID: 43713
Int'l Code: 2018-094D
Perigee: 491.7 km
Apogee: 511.6 km
Inclination: 97.4 °
Period: 94.5 minutes
Semi major axis: 6872 km
RCS: Unknown
Launch date: November 19, 2018
Source: People's Republic of China (PRC)
Launch site: Jiuquan Satellite Launch Center, China (JSC)
aabbcc
Your satellite tracking list
Your tracking list is empty




NASA's NSSDC Master Catalog

Two Line Element Set (TLE):
1 43713U 18094D   19346.41876792  .00000425  00000-0  20594-4 0  9992
2 43713  97.4058 351.3573 0014448 354.6203 136.3229 15.23760690 58989
Source of the keplerian elements: AFSPC